Terminal Aerodrome Forecast
Issued by NWS

Home | Current Version | Previous Version | Text Only | Print | Product List | Glossary On
Versions: 1 2 3 4 5 6 7 8 9 10 11 12 13 14 15 16 17 18 19 20 21 22 23 24 25 26 27 28 29 30 31 32 33 34
966
FTPA31 PHFO 130520
TAFMDY
TAF
PMDY 130520Z 1306/1406 28012G20KT P6SM VCSH SCT025 BKN045
     FM131900 30014G23KT P6SM SCT025 SCT045
      AMD NOT SKED=

USA.gov is the U.S. government's official web portal to all federal, state and local government web resources and services.